H1 CPF 2 NER 2024 11 28 9 333 01 glonass116 H2 0907001 9116 36111 2024 11 28 0 0 0 2024 12 1 23 45 0 900 1 1 0 0 0 1 H9 10 0 60642 0.00000 0 10297173.168 13956816.368 18699550.144 10 0 60642 900.00000 0 8073877.443 13015298.397 20394036.424 10 0 60642 1800.00000 0 5611770.095 12184519.148 21692299.591 10 0 60642 2700.00000 0 2965373.997 11504888.363 22569141.828 10 0 60642 3600.00000 0 196655.681 11006867.142 23007553.190 10 0 60642 4500.00000 0 -2627305.615 10709681.372 22999039.287 10 0 60642 5400.00000 0 -5436862.352 10620526.033 22543784.066 10 0 60642 6300.00000 0 -8162451.612 10734293.429 21650644.796 10 0 60642 7200.00000 0 -10737247.054 11033836.435 20336979.451 10 0 60642 8100.00000 0 -13099700.545 11490755.380 18628309.814 10 0 60642 9000.00000 0 -15195868.630 12066675.297 16557826.609 10 0 60642 9900.00000 0 -16981427.799 12714959.638 14165745.971 10 0 60642 10800.00000 0 -18423295.464 13382788.189 11498529.432 10 0 60642 11700.00000 0 -19500789.809 14013511.519 8607982.223 10 0 60642 12600.00000 0 -20206280.897 14549182.486 5550247.233 10 0 60642 13500.00000 0 -20545306.645 14933157.773 2384714.108 10 0 60642 14400.00000 0 -20536149.676 15112659.269 -827135.284 10 0 60642 15300.00000 0 -20208893.703 15041186.691 -4022922.304 10 0 60642 16200.00000 0 -19603999.977 14680679.033 -7140584.385 10 0 60642 17100.00000 0 -18770464.484 14003332.969 -10119581.376 10 0 60642 18000.00000 0 -17763634.217 12993000.787 -12902071.579 10 0 60642 18900.00000 0 -16642775.033 11646108.164 -15434034.472 10 0 60642 19800.00000 0 -15468493.908 9972052.303 -17666318.259 10 0 60642 20700.00000 0 -14300124.296 7993062.760 -19555592.004 10 0 60642 21600.00000 0 -13193184.620 5743529.814 -21065184.178 10 0 60642 22500.00000 0 -12197016.537 3268827.375 -22165791.777 10 0 60642 23400.00000 0 -11352701.910 623678.526 -22836046.673 10 0 60642 24300.00000 0 -10691345.551 -2129869.359 -23062928.724 10 0 60642 25200.00000 0 -10232795.359 -4924776.743 -22842017.950 10 0 60642 26100.00000 0 -9984853.155 -7691555.454 -22177581.100 10 0 60642 27000.00000 0 -9943009.002 -10360918.957 -21082490.918 10 0 60642 27900.00000 0 -10090709.893 -12866430.272 -19577979.474 10 0 60642 28800.00000 0 -10400151.428 -15147038.296 -17693229.912 10 0 60642 29700.00000 0 -10833559.094 -17149397.813 -15464814.047 10 0 60642 30600.00000 0 -11344905.287 -18829877.219 -12935986.094 10 0 60642 31500.00000 0 -11881989.685 -20156170.759 -10155845.708 10 0 60642 32400.00000 0 -12388795.208 -21108448.410 -7178386.177 10 0 60642 33300.00000 0 -12808019.901 -21679995.756 -4061445.948 10 0 60642 34200.00000 0 -13083677.458 -21877317.457 -865583.894 10 0 60642 35100.00000 0 -13163655.936 -21719700.507 2347099.647 10 0 60642 36000.00000 0 -13002125.826 -21238256.165 5514172.778 10 0 60642 36900.00000 0 -12561694.827 -20474481.497 8574088.814 10 0 60642 37800.00000 0 -11815217.382 -19478401.759 11467385.712 10 0 60642 38700.00000 0 -10747181.537 -18306372.490 14137844.357 10 0 60642 39600.00000 0 -9354613.646 -17018634.521 16533582.739 10 0 60642 40500.00000 0 -7647461.758 -15676725.318 18608064.568 10 0 60642 41400.00000 0 -5648440.523 -14340855.946 20321002.709 10 0 60642 42300.00000 0 -3392343.133 -13067364.111 21639140.073 10 0 60642 43200.00000 0 -924848.094 -11906350.257 22536893.122 10 0 60642 44100.00000 0 1699130.323 -10899595.697 22996845.980 10 0 60642 45000.00000 0 4417480.017 -10078849.746 23010085.961 10 0 60642 45900.00000 0 7163233.464 -9464557.124 22576374.447 10 0 60642 46800.00000 0 9867118.010 -9065078.360 21704150.052 10 0 60642 47700.00000 0 12460208.793 -8876435.255 20410364.146 10 0 60642 48600.00000 0 14876574.833 -8882591.420 18720151.861 10 0 60642 49500.00000 0 17055808.972 -9056255.526 16666344.774 10 0 60642 50400.00000 0 18945337.036 -9360172.990 14288834.408 10 0 60642 51300.00000 0 20502410.698 -9748851.255 11633798.580 10 0 60642 52200.00000 0 21695701.525 -10170645.630 8752805.288 10 0 60642 53100.00000 0 22506430.216 -10570117.299 5701811.354 10 0 60642 54000.00000 0 22928984.423 -10890563.591 2540075.189 10 0 60642 54900.00000 0 22970999.916 -11076613.212 -670995.138 10 0 60642 55800.00000 0 22652902.339 -11076776.250 -3869035.901 10 0 60642 56700.00000 0 22006929.511 -10845840.645 -6991940.276 10 0 60642 57600.00000 0 21075675.989 -10347013.216 -9979065.589 10 0 60642 58500.00000 0 19910221.740 -9553714.116 -12772411.423 10 0 60642 59400.00000 0 18567924.122 -8450948.253 -15317745.524 10 0 60642 60300.00000 0 17109966.390 -7036194.981 -17565655.578 10 0 60642 61200.00000 0 15598765.970 -5319777.709 -19472506.509 10 0 60642 62100.00000 0 14095351.377 -3324696.881 -21001285.017 10 0 60642 63000.00000 0 12656817.668 -1085932.166 -22122315.364 10 0 60642 63900.00000 0 11333966.821 1350758.106 -22813832.980 10 0 60642 64800.00000 0 10169231.399 3930491.378 -23062405.223 10 0 60642 65700.00000 0 9194967.916 6591301.466 -22863191.501 10 0 60642 66600.00000 0 8432190.727 9266481.554 -22220037.921 10 0 60642 67500.00000 0 7889798.872 11887133.267 -21145404.640 10 0 60642 68400.00000 0 7564327.670 14384816.857 -19660127.104 10 0 60642 69300.00000 0 7440235.002 16694193.151 -17793015.456 10 0 60642 70200.00000 0 7490709.844 18755548.044 -15580299.306 10 0 60642 71100.00000 0 7678968.697 20517094.951 -13064928.095 10 0 60642 72000.00000 0 7959985.056 21936959.599 -10295740.053 10 0 60642 72900.00000 0 8282578.700 22984764.556 -7326515.488 10 0 60642 73800.00000 0 8591776.269 23642747.458 -4214932.490 10 0 60642 74700.00000 0 8831342.951 23906366.304 -1021445.362 10 0 60642 75600.00000 0 8946377.682 23784366.662 2191892.259 10 0 60642 76500.00000 0 8885861.393 23298308.286 5362636.361 10 0 60642 77400.00000 0 8605049.701 22481571.421 8429169.522 10 0 60642 78300.00000 0 8067607.949 21377885.048 11331901.716 10 0 60642 79200.00000 0 7247397.390 20039439.497 14014431.079 10 0 60642 80100.00000 0 6129836.079 18524663.286 16424641.658 10 0 60642 81000.00000 0 4712776.069 16895758.124 18515716.583 10 0 60642 81900.00000 0 3006858.899 15216095.938 20247046.969 10 0 60642 82800.00000 0 1035333.411 13547587.387 21585019.045 10 0 60642 83700.00000 0 -1166657.518 11948132.178 22503664.566 10 0 60642 84600.00000 0 -3553292.558 10469257.769 22985162.346 10 0 60642 85500.00000 0 -6069739.997 9154044.922 23020181.593 10 0 60643 0.00000 0 -8654209.532 8035426.348 22608060.902 10 0 60643 900.00000 0 -11240304.587 7134928.322 21756819.386 10 0 60643 1800.00000 0 -13759574.659 6461908.523 20483000.519 10 0 60643 2700.00000 0 -16144166.852 6013319.112 18811350.966 10 0 60643 3600.00000 0 -18329463.510 5774005.605 16774340.852 10 0 60643 4500.00000 0 -20256598.075 5717527.535 14411534.362 10 0 60643 5400.00000 0 -21874744.615 5807465.729 11768822.553 10 0 60643 6300.00000 0 -23143085.939 5999160.446 8897532.935 10 0 60643 7200.00000 0 -24032378.440 6241806.532 5853432.914 10 0 60643 8100.00000 0 -24526048.624 6480816.545 2695646.338 10 0 60643 9000.00000 0 -24620775.720 6660351.485 -514495.751 10 0 60643 9900.00000 0 -24326536.366 6725911.568 -3714647.607 10 0 60643 10800.00000 0 -23666109.911 6626876.891 -6842661.013 10 0 60643 11700.00000 0 -22674065.547 6318889.945 -9837793.410 10 0 60643 12600.00000 0 -21395274.263 5765978.562 -12641888.046 10 0 60643 13500.00000 0 -19883008.541 4942328.939 -15200503.029 10 0 60643 14400.00000 0 -18196709.864 3833633.096 -17463967.276 10 0 60643 15300.00000 0 -16399517.953 2437953.168 -19388342.932 10 0 60643 16200.00000 0 -14555665.316 766065.184 -20936275.843 10 0 60643 17100.00000 0 -12727846.103 -1158733.180 -22077718.000 10 0 60643 18000.00000 0 -10974669.066 -3301343.948 -22790508.375 10 0 60643 18900.00000 0 -9348300.604 -5616090.394 -23060801.358 10 0 60643 19800.00000 0 -7892395.776 -8048389.057 -22883334.853 10 0 60643 20700.00000 0 -6640402.996 -10536803.736 -22261533.058 10 0 60643 21600.00000 0 -5614312.493 -13015397.122 -21207441.934 10 0 60643 22500.00000 0 -4823900.030 -15416283.215 -19741498.441 10 0 60643 23400.00000 0 -4266496.813 -17672275.170 -17892137.627 10 0 60643 24300.00000 0 -3927294.500 -19719519.007 -15695244.665 10 0 60643 25200.00000 0 -3780171.864 -21500003.940 -13193461.899 10 0 60643 26100.00000 0 -3789007.767 -22963844.880 -10435363.792 10 0 60643 27000.00000 0 -3909424.613 -24071241.922 -7474515.368 10 0 60643 27900.00000 0 -4090888.176 -24794034.869 -4368432.131 10 0 60643 28800.00000 0 -4279074.570 -25116787.662 -1177461.677 10 0 60643 29700.00000 0 -4418403.632 -25037357.179 2036391.103 10 0 60643 30600.00000 0 -4454630.840 -24566922.584 5210672.037 10 0 60643 31500.00000 0 -4337387.255 -23729474.055 8283694.878 10 0 60643 32400.00000 0 -4022559.180 -22560782.623 11195743.466 10 0 60643 33300.00000 0 -3474405.918 -21106894.661 13890234.990 10 0 60643 34200.00000 0 -2667325.216 -19422214.635 16314821.275 10 0 60643 35100.00000 0 -1587190.894 -17567256.950 18422406.476 10 0 60643 36000.00000 0 -232205.283 -15606161.437 20172061.401 10 0 60643 36900.00000 0 1386770.378 -13604076.815 21529816.828 10 0 60643 37800.00000 0 3246422.463 -11624521.591 22469320.787 10 0 60643 38700.00000 0 5311720.781 -9726832.592 22972347.481 10 0 60643 39600.00000 0 7537153.887 -7963807.309 23029148.430 10 0 60643 40500.00000 0 9868413.279 -6379637.893 22638639.451 10 0 60643 41400.00000 0 12244457.162 -5008222.236 21808420.129 10 0 60643 42300.00000 0 14599868.590 -3871921.744 20554625.572 10 0 60643 43200.00000 0 16867410.531 -2980816.632 18901613.248 10 0 60643 44100.00000 0 18980672.057 -2332488.814 16881490.821 10 0 60643 45000.00000 0 20876695.896 -1912340.383 14533493.835 10 0 60643 45900.00000 0 22498478.138 -1694433.261 11903224.965 10 0 60643 46800.00000 0 23797236.080 -1642813.771 9041769.291 10 0 60643 47700.00000 0 24734349.571 -1713265.461 6004702.523 10 0 60643 48600.00000 0 25282894.798 -1855415.475 2851011.364 10 0 60643 49500.00000 0 25428706.370 -2015104.795 -358053.014 10 0 60643 50400.00000 0 25170923.292 -2136921.506 -3560165.848 10 0 60643 51300.00000 0 24521996.070 -2166789.282 -6693140.609 10 0 60643 52200.00000 0 23507154.822 -2054500.995 -9696137.881 10 0 60643 53100.00000 0 22163360.937 -1756089.624 -12510847.451 10 0 60643 54000.00000 0 20537786.469 -1235935.614 -15082620.426 10 0 60643 54900.00000 0 18685885.216 -468520.998 -17361529.318 10 0 60643 55800.00000 0 16669136.408 560244.478 -19303335.539 10 0 60643 56700.00000 0 14552555.455 1852181.870 -20870345.828 10 0 60643 57600.00000 0 12402075.667 3396522.549 -22032141.333 10 0 60643 58500.00000 0 10281910.021 5170123.176 -22766165.680 10 0 60643 59400.00000 0 8252002.604 7138208.256 -23058161.071 10 0 60643 60300.00000 0 6365675.367 9255610.455 -22902444.332 10 0 60643 61200.00000 0 4667567.588 11468458.041 -22302017.787 10 0 60643 62100.00000 0 3191953.092 13716240.258 -21268512.839 10 0 60643 63000.00000 0 1961504.542 15934165.580 -19821967.177 10 0 60643 63900.00000 0 986555.488 18055715.457 -17990439.553 10 0 60643 64800.00000 0 264890.154 20015287.767 -15809469.090 10 0 60643 65700.00000 0 -217931.138 21750820.235 -13321389.037 10 0 60643 66600.00000 0 -487725.321 23206284.452 -10574507.733 10 0 60643 67500.00000 0 -580355.123 24333946.332 -7622172.237 10 0 60643 68400.00000 0 -539969.598 25096298.270 -4521732.527 10 0 60643 69300.00000 0 -416891.620 25467581.788 -1333426.363 10 0 60643 70200.00000 0 -265242.342 25434836.529 1880793.344 10 0 60643 71100.00000 0 -140403.860 24998431.321 5058465.530 10 0 60643 72000.00000 0 -96428.257 24172054.768 8137838.301 10 0 60643 72900.00000 0 -183503.541 22982165.713 11059072.398 10 0 60643 73800.00000 0 -445584.548 21466926.623 13765406.881 10 0 60643 74700.00000 0 -918289.884 19674664.784 16204263.902 10 0 60643 75600.00000 0 -1627154.587 17661926.004 18328270.909 10 0 60643 76500.00000 0 -2586313.127 15491202.496 20096180.342 10 0 60643 77400.00000 0 -3797669.069 13228430.131 21473669.141 10 0 60643 78300.00000 0 -5250587.180 10940359.653 22434002.861 10 0 60643 79200.00000 0 -6922121.842 8691911.374 22958551.960 10 0 60643 80100.00000 0 -8777773.031 6543623.361 23037150.700 10 0 60643 81000.00000 0 -10772739.162 4549298.869 22668292.136 10 0 60643 81900.00000 0 -12853615.315 2753950.247 21859155.705 10 0 60643 82800.00000 0 -14960466.731 1192124.109 20625467.062 10 0 60643 83700.00000 0 -17029191.803 -113323.522 18991192.841 10 0 60643 84600.00000 0 -18994076.601 -1151952.136 16988076.073 10 0 60643 85500.00000 0 -20790434.801 -1925932.639 14655021.004 10 0 60644 0.00000 0 -22357222.977 -2449707.206 12037339.124 10 0 60644 900.00000 0 -23639523.003 -2749128.775 9185869.253 10 0 60644 1800.00000 0 -24590785.700 -2860116.785 6155992.092 10 0 60644 2700.00000 0 -25174744.557 -2826887.706 3006553.586 10 0 60644 3600.00000 0 -25366917.075 -2699835.131 -201278.537 10 0 60644 4500.00000 0 -25155631.487 -2533150.114 -3405203.973 10 0 60644 5400.00000 0 -24542535.507 -2382283.019 -6543001.171 10 0 60644 6300.00000 0 -23542565.613 -2301354.892 -9553736.932 10 0 60644 7200.00000 0 -22183378.119 -2340628.497 -12378950.391 10 0 60644 8100.00000 0 -20504265.825 -2544146.514 -14963788.148 10 0 60644 9000.00000 0 -18554605.605 -2947637.305 -17258068.418 10 0 60644 9900.00000 0 -16391901.907 -3576777.228 -19217253.556 10 0 60644 10800.00000 0 -14079507.818 -4445883.418 -20803312.332 10 0 60644 11700.00000 0 -11684118.647 -5557092.766 -21985455.631 10 0 60644 12600.00000 0 -9273142.258 -6900062.437 -22740731.712 10 0 60644 13500.00000 0 -6912055.210 -8452205.407 -23054469.976 10 0 60644 14400.00000 0 -4661854.158 -10179452.205 -22920565.007 10 0 60644 15300.00000 0 -2576707.853 -12037508.029 -22341595.616 10 0 60644 16200.00000 0 -701906.598 -13973553.806 -21328776.605 10 0 60644 17100.00000 0 927806.395 -15928321.183 -19901744.031 10 0 60644 18000.00000 0 2289453.132 -17838455.667 -18088177.763 10 0 60644 18900.00000 0 3372538.608 -19639069.991 -15923268.134 10 0 60644 19800.00000 0 4179239.167 -21266381.493 -13449036.481 10 0 60644 20700.00000 0 4724054.509 -22660323.485 -10713522.189 10 0 60644 21600.00000 0 5032938.821 -23767021.331 -7769851.574 10 0 60644 22500.00000 0 5141948.498 -24541029.288 -4675206.410 10 0 60644 23400.00000 0 5095464.245 -24947233.937 -1489712.075 10 0 60644 24300.00000 0 4944063.462 -24962343.821 1724732.885 10 0 60644 25200.00000 0 4742133.671 -24575902.229 4905662.704 10 0 60644 26100.00000 0 4545328.756 -23790780.104 7991261.860 10 0 60644 27000.00000 0 4407976.492 -22623127.937 10921569.814 10 0 60644 27900.00000 0 4380547.904 -21101788.404 13639649.111 10 0 60644 28800.00000 0 4507296.254 -19267194.171 16092693.638 10 0 60644 29700.00000 0 4824166.233 -17169797.019 18233055.299 10 0 60644 30600.00000 0 5357062.321 -14868093.956 20019169.089 10 0 60644 31500.00000 0 6120550.025 -12426332.838 21416358.754 10 0 60644 32400.00000 0 7117045.350 -9911993.182 22397507.742 10 0 60644 33300.00000 0 8336527.254 -7393146.953 22943582.857 10 0 60644 34200.00000 0 9756785.827 -4935808.949 23044000.926 10 0 60644 35100.00000 0 11344196.537 -2601386.477 22696831.814 10 0 60644 36000.00000 0 13054988.806 -444333.696 21908834.168 10 0 60644 36900.00000 0 14836956.594 1489892.659 20695323.352 10 0 60644 37800.00000 0 16631540.077 3166492.137 19079874.135 10 0 60644 38700.00000 0 18376192.026 4562526.070 17093863.719 10 0 60644 39600.00000 0 20006930.383 5667620.612 14775863.670 10 0 60644 40500.00000 0 21460970.566 6484139.237 12170892.221 10 0 60644 41400.00000 0 22679327.521 7026818.697 9329541.081 10 0 60644 42300.00000 0 23609278.496 7321884.928 6306993.478 10 0 60644 43200.00000 0 24206583.146 7405687.222 3161952.357 10 0 60644 44100.00000 0 24437367.608 7322909.198 -44500.437 10 0 60644 45000.00000 0 24279593.089 7124433.020 -3250091.634 10 0 60644 45900.00000 0 23724046.971 6864947.863 -6392567.303 10 0 60644 46800.00000 0 22774814.435 6600404.467 -9410903.076 10 0 60644 47700.00000 0 21449210.454 6385424.033 -12246489.940 10 0 60644 48600.00000 0 19777174.701 6270771.569 -14844272.318 10 0 60644 49500.00000 0 17800154.414 6301000.944 -17153816.228 10 0 60644 50400.00000 0 15569521.687 6512371.560 -19130286.822 10 0 60644 51300.00000 0 13144591.033 6931124.954 -20735316.532 10 0 60644 52200.00000 0 10590319.551 7572194.419 -21937747.370 10 0 60644 53100.00000 0 7974785.155 8438402.492 -22714233.394 10 0 60644 54000.00000 0 5366547.264 9520180.639 -23049692.119 10 0 60644 54900.00000 0 2831999.060 10795823.689 -22937596.523 10 0 60644 55800.00000 0 432820.652 12232269.144 -22380102.193 10 0 60644 56700.00000 0 -1776361.860 13786369.652 -21388007.237 10 0 60644 57600.00000 0 -3750015.025 15406606.282 -19980545.566 10 0 60644 58500.00000 0 -5453350.467 17035171.748 -18185017.203 10 0 60644 59400.00000 0 -6863523.248 18610337.120 -16036262.300 10 0 60644 60300.00000 0 -7970327.117 20069003.461 -13575988.479 10 0 60644 61200.00000 0 -8776358.534 21349331.804 -10851964.000 10 0 60644 62100.00000 0 -9296643.529 22393341.219 -7917091.968 10 0 60644 63000.00000 0 -9557743.991 23149365.780 -4828383.228 10 0 60644 63900.00000 0 -9596381.899 23574266.802 -1645847.888 10 0 60644 64800.00000 0 -9457640.365 23635306.808 1568672.877 10 0 60644 65700.00000 0 -9192818.342 23311605.768 4752711.653 10 0 60644 66600.00000 0 -8857030.504 22595117.656 7844392.308 10 0 60644 67500.00000 0 -8506654.653 21491085.634 10783635.975 10 0 60644 68400.00000 0 -8196735.413 20017956.115 13513331.496 10 0 60644 69300.00000 0 -7978454.760 18206754.847 15980447.136 10 0 60644 70200.00000 0 -7896776.939 16099950.790 18137061.674 10 0 60644 71100.00000 0 -7988367.814 13749855.040 19941294.828 10 0 60644 72000.00000 0 -8279876.922 11216621.462 21358119.043 10 0 60644 72900.00000 0 -8786655.049 8565932.231 22360037.223 10 0 60644 73800.00000 0 -9511961.716 5866464.366 22927613.723 10 0 60644 74700.00000 0 -10446696.281 3187242.353 23049848.734 10 0 60644 75600.00000 0 -11569664.375 594986.350 22724389.285 10 0 60644 76500.00000 0 -12848368.972 -1848434.498 21957573.081 10 0 60644 77400.00000 0 -14240293.410 -4088338.609 20764304.521 10 0 60644 78300.00000 0 -15694623.104 -6079262.250 19167765.293 10 0 60644 79200.00000 0 -17154334.313 -7786600.150 17198965.013 10 0 60644 80100.00000 0 -18558562.837 -9187789.264 14896140.313 10 0 60644 81000.00000 0 -19845153.641 -10272987.513 12304013.709 10 0 60644 81900.00000 0 -20953284.681 -11045220.342 9472926.260 10 0 60644 82800.00000 0 -21826054.766 -11519990.187 6457860.597 10 0 60644 83700.00000 0 -22412926.657 -11724366.391 3317373.145 10 0 60644 84600.00000 0 -22671922.414 -11695594.952 112456.258 10 0 60644 85500.00000 0 -22571478.295 -11479287.664 -3094647.436 10 0 60645 0.00000 0 -22091880.749 -11127267.996 -6241654.895 10 0 60645 900.00000 0 -21226222.283 -10695165.221 -9267454.575 10 0 60645 1800.00000 0 -19980837.164 -10239859.645 -12113292.263 10 0 60645 2700.00000 0 -18375197.264 -9816886.761 -14723913.178 10 0 60645 3600.00000 0 -16441272.402 -9477910.919 -17048633.785 10 0 60645 4500.00000 0 -14222381.244 -9268375.305 -19042324.248 10 0 60645 5400.00000 0 -11771580.278 -9225427.703 -20666282.347 10 0 60645 6300.00000 0 -9149657.526 -9376209.659 -21888982.315 10 0 60645 7200.00000 0 -6422814.003 -9736581.353 -22686684.444 10 0 60645 8100.00000 0 -3660128.732 -10310336.079 -23043894.145 10 0 60645 9000.00000 0 -930911.941 -11088937.745 -22953661.925 10 0 60645 9900.00000 0 1697944.406 -12051792.906 -22417718.723 10 0 60645 10800.00000 0 4164509.556 -13167046.508 -21446444.044 10 0 60645 11700.00000 0 6414145.702 -14392868.657 -20058667.342 10 0 60645 12600.00000 0 8401532.452 -15679179.109 -18281306.179 10 0 60645 13500.00000 0 10092300.716 -16969737.825 -16148847.667 10 0 60645 14400.00000 0 11464208.835 -18204514.356 -13702682.672 10 0 60645 15300.00000 0 12507812.707 -19322236.932 -10990305.170 10 0 60645 16200.00000 0 13226602.766 -20263014.249 -8064391.813 10 0 60645 17100.00000 0 13636602.953 -20970919.604 -4981779.272 10 0 60645 18000.00000 0 13765449.394 -21396428.241 -1802359.178 10 0 60645 18900.00000 0 13650988.451 -21498604.748 1412087.734 10 0 60645 19800.00000 0 13339454.128 -21246947.642 4599095.279 10 0 60645 20700.00000 0 12883302.645 -20622812.670 7696729.339 10 0 60645 21600.00000 0 12338796.509 -19620354.026 10644795.004 10 0 60645 22500.00000 0 11763440.962 -18246943.112 13386009.342 10 0 60645 23400.00000 0 11213381.865 -16523046.478 15867116.518 10 0 60645 24300.00000 0 10740875.569 -14481567.401 18039923.316 10 0 60645 25200.00000 0 10391938.025 -12166678.103 19862234.893 10 0 60645 26100.00000 0 10204272.688 -9632190.941 21298672.713 10 0 60645 27000.00000 0 10205564.746 -6939536.097 22321359.093 10 0 60645 27900.00000 0 10412213.633 -4155429.531 22910455.547 10 0 60645 28800.00000 0 10828557.234 -1349327.789 23054544.941 10 0 60645 29700.00000 0 11446620.482 1409225.154 22750850.513 10 0 60645 30600.00000 0 12246399.010 4053249.500 22005287.860 10 0 60645 31500.00000 0 13196666.141 6520870.319 20832349.072 10 0 60645 32400.00000 0 14256269.565 8757642.682 19254821.274 10 0 60645 33300.00000 0 15375863.534 10718565.594 17303344.889 10 0 60645 34200.00000 0 16500004.128 12369701.922 15015819.892 10 0 60645 35100.00000 0 17569519.797 13689337.926 12436671.254 10 0 60645 36000.00000 0 18524057.687 14668635.097 9615987.425 10 0 60645 36900.00000 0 19304698.692 15311748.157 6608548.351 10 0 60645 37800.00000 0 19856531.026 15635405.367 3472761.727 10 0 60645 38700.00000 0 20131073.733 15667969.852 269528.097 10 0 60645 39600.00000 0 20088447.587 15448022.405 -2938942.929 10 0 60645 40500.00000 0 19699201.437 15022526.428 -6090342.133 10 0 60645 41400.00000 0 18945716.453 14444653.176 -9123471.965 10 0 60645 42300.00000 0 17823128.459 13771359.801 -11979435.768 10 0 60645 43200.00000 0 16339728.859 13060822.997 -14602781.552 10 0 60645 44100.00000 0 14516826.535 12369836.962 -16942578.023 10 0 60645 45000.00000 0 12388075.751 11751285.775 -18953401.928 10 0 60645 45900.00000 0 9998297.392 11251796.876 -20596217.775 10 0 60645 46800.00000 0 7401841.978 10909674.595 -21839133.202 10 0 60645 47700.00000 0 4660561.906 10753200.699 -22658015.739 10 0 60645 48600.00000 0 1841476.500 10799373.414 -23036959.491 10 0 60645 49500.00000 0 -985773.947 11053137.960 -22968593.053 10 0 60645 50400.00000 0 -3751580.218 11507141.017 -22454222.972 10 0 60645 51300.00000 0 -6389013.137 12142019.640 -21503810.035 10 0 60645 52200.00000 0 -8836360.355 12927212.824 -20135778.720 10 0 60645 53100.00000 0 -11039446.450 13822262.003 -18376663.173 10 0 60645 54000.00000 0 -12953640.709 14778546.310 -16260596.086 10 0 60645 54900.00000 0 -14545469.834 15741380.032 -13828649.823 10 0 60645 55800.00000 0 -15793769.045 16652384.318 -11128042.004 10 0 60645 56700.00000 0 -16690324.243 17452033.461 -8211220.521 10 0 60645 57600.00000 0 -17239979.101 18082268.376 -5134845.383 10 0 60645 58500.00000 0 -17460203.309 18489066.812 -1958687.149 10 0 60645 59400.00000 0 -17380140.931 18624861.366 1255536.566 10 0 60645 60300.00000 0 -17039179.718 18450702.582 4445363.513 10 0 60645 61200.00000 0 -16485102.513 17938075.053 7548804.301 10 0 60645 62100.00000 0 -15771899.574 17070288.999 10505550.674 10 0 60645 63000.00000 0 -14957334.914 15843387.771 13258150.570 10 0 60645 63900.00000 0 -14100370.139 14266532.135 15753126.604 10 0 60645 64800.00000 0 -13258555.060 12361844.342 17942015.964 10 0 60645 65700.00000 0 -12485495.597 10163717.670 19782311.462 10 0 60645 66600.00000 0 -11828505.980 7717619.632 21238285.543 10 0 60645 67500.00000 0 -11326544.197 5078438.145 22281681.606 10 0 60645 68400.00000 0 -11008517.519 2308438.951 22892259.658 10 0 60645 69300.00000 0 -10892029.185 -525081.302 23058186.191 10 0 60645 70200.00000 0 -10982618.675 -3352349.412 22776261.194 10 0 60645 71100.00000 0 -11273527.250 -6103772.048 22051978.253 10 0 60645 72000.00000 0 -11745998.386 -8712584.651 20899416.780 10 0 60645 72900.00000 0 -12370100.365 -11117383.670 19340968.497 10 0 60645 73800.00000 0 -13106036.376 -13264437.791 17406903.320 10 0 60645 74700.00000 0 -13905887.069 -15109682.940 15134782.810 10 0 60645 75600.00000 0 -14715712.292 -16620318.913 12568732.214 10 0 60645 76500.00000 0 -15477923.549 -17775942.028 9758584.842 10 0 60645 77400.00000 0 -16133827.237 -18569167.372 6758915.136 10 0 60645 78300.00000 0 -16626231.265 -19005715.595 3627979.004 10 0 60645 79200.00000 0 -16902004.924 -19103961.529 426581.976 10 0 60645 80100.00000 0 -16914483.559 -18893964.488 -2783102.683 10 0 60645 81000.00000 0 -16625616.094 -18416021.924 -5938742.678 10 0 60645 81900.00000 0 -16007764.166 -17718808.119 -8979058.416 10 0 60645 82800.00000 0 -15045076.287 -16857177.055 -11845013.842 10 0 60645 83700.00000 0 -13734378.373 -15889722.671 -14480962.976 10 0 60645 84600.00000 0 -12085542.265 -14876199.742 -16835729.758 10 0 60645 85500.00000 0 -10121315.907 -13874914.393 -18863600.200 99